Hourly Data Report for September 12, 2017

All times are specified in Local Standard Time (LST). Add 1 hour to adjust for Daylight Saving Time where and when it is observed.

EDMUNDSTON
NEW BRUNSWICK

47°25'00.000" N
68°19'28.040" W
154.20 m
8101303
71590
ERM

Download Data

Hourly Data (September 2017)
Hourly Data Report for September 12, 2017
Temp Definition
°C
Dew Point Temp Definition
°C
Rel Hum Definition
%
Wind Dir Definition
10's deg

Wind Spd Definition
km/h
Visibility Definition
km
Stn Press Definition
kPa
Hmdx Definition


Wind Chill Definition


Weather Definition


TIME
00:00 5.9 5.2 95   0   99.79     LegendNANA
01:00 5.1 4.4 95   0   99.74     LegendNANA
02:00 4.9 4.3 96 0 1   99.71     LegendNANA
03:00 4.0 3.3 96 34 3   99.67     LegendNANA
04:00 3.9 3.2 96   0   99.63     LegendNANA
05:00 3.3 2.7 96   0   99.57     LegendNANA
06:00 3.2 2.6 96   0   99.49     LegendNANA
07:00 3.8 3.2 96   0   99.47     LegendNANA
08:00 8.0 7.5 96 0 1   99.41     LegendNANA
09:00 9.6 8.2 91 12 2   99.35     LegendNANA
10:00 14.7 11.2 79 12 5   99.25     LegendNANA
11:00 17.8 12.1 69 11 4   99.18     LegendNANA
12:00 19.3 11.5 61 26 7   99.12     LegendNANA
13:00 21.7 11.2 51 21 7   99.07     LegendNANA
14:00 21.0 11.2 53 31 9   99.01     LegendNANA
15:00 22.4 10.2 46 29 4   98.92     LegendNANA
16:00 22.1 11.6 51 35 8   98.89     LegendNANA
17:00 22.0 12.0 53 33 7   98.86     LegendNANA
18:00 21.0 12.7 59 30 4   98.86     LegendNANA
19:00 14.8 12.5 86 33 5   98.87     LegendNANA
20:00 12.1 10.8 92 30 7   98.89     LegendNANA
21:00 10.4 9.4 94 32 11   98.93     LegendNANA
22:00 9.6 8.6 94 33 2   98.91     LegendNANA
23:00 9.0 8.2 95 32 1   98.92     LegendNANA

Notes on Data Quality.

Legend

  • E = Estimated
  • M = Missing
  • NA = Not Available
  • ‡ = Partner data that is not subject to review by the National Climate Archives
Date modified: